Kelso, MO

3:12 PM CST on February 20, 2017 (GMT -0600)
Cape Girardeau Regional

Weather History for KCGI - November, 2011

Change the Weather History Date:

Wednesday, November 9, 2011

  Actual Average Record
Temperature  
Mean Temperature 50 °F 50 °F  
Max Temperature 64 °F 61 °F 77 °F (1980)
Min Temperature 36 °F 39 °F 12 °F (1991)
Degree Days  
Heating Degree Days 15 15  
Month to date heating degree days 95 126  
Since 1 July heating degree days 382 429  
Cooling Degree Days 0 0  
Month to date cooling degree days 0 0  
Year to date cooling degree days 1697 1451  
Moisture  
Dew Point 47 °F    
Average Humidity 70    
Maximum Humidity 85    
Minimum Humidity 54    
Precipitation  
Precipitation 0.18 in 0.14 in 1.40 in (1984)
Month to date precipitation 2.02 1.20  
Year to date precipitation 61.01 39.32  
Sea Level Pressure  
Sea Level Pressure 29.96 in    
Wind  
Wind Speed 13 mph (WSW)    
Max Wind Speed 31 mph    
Max Gust Speed 38 mph    
Visibility 9 miles    
Events Rain    
T = Trace of Precipitation, MM = Missing Value Source: NWS Daily Summary

Daily Weather History Graph

Daily Weather History Graph

Search for Another Location

Airport or City:

Trip Planner

Search our weather history database for the weather conditions in past years. The results will help you decide how hot, cold, wet, or windy it might be!

Date:

Astronomy

Nov. 09, 2011 Rise Set
Actual Time 6:30 AM CST 4:52 PM CST
Civil Twilight 6:03 AM CST 5:20 PM CST
Nautical Twilight 5:32 AM CST 5:51 PM CST
Astronomical Twilight 5:01 AM CST 6:22 PM CST
Moon 4:05 PM CST (11/9) 5:26 AM CST (11/9)
Length of Visible Light 11h 17m
Length of Day
10h 22m
Waxing Gibbous, 99% of the Moon is Illuminated
Nov 9
Waxing Gibbous
Nov 10
Full
Nov 18
Last Quarter
Nov 25
New
Dec 2
First Quarter

Hourly Weather History & Observations

Time (CST) Temp. Windchill Dew Point Humidity Pressure Visibility Wind Dir Wind Speed Gust Speed Precip Events Conditions
12:02 AM 60.8 °F - 59.0 °F 94% 29.81 in 10.0 mi SE 9.2 mph - N/A   Overcast
12:26 AM 62.6 °F - 59.0 °F 88% 29.81 in 10.0 mi SSE 12.7 mph - 0.01 in   Overcast
12:53 AM 62.1 °F - 59.0 °F 90% 29.80 in 10.0 mi SSE 15.0 mph - 0.01 in Rain Light Rain
1:15 AM 62.6 °F - 59.0 °F 88% 29.79 in 7.0 mi SSE 13.8 mph - 0.04 in Rain Light Rain
1:28 AM 62.6 °F - 60.8 °F 94% 29.78 in 8.0 mi South 12.7 mph - 0.05 in Rain Light Rain
1:50 AM 62.6 °F - 60.8 °F 94% 29.77 in 10.0 mi South 13.8 mph - 0.07 in Rain Light Rain
1:53 AM 63.0 °F - 61.0 °F 93% 29.76 in 10.0 mi SSE 16.1 mph - 0.07 in   Overcast
2:24 AM 64.4 °F - 60.8 °F 88% 29.76 in 2.5 mi SSW 12.7 mph 21.9 mph 0.06 in Rain Rain
2:33 AM 64.4 °F - 60.8 °F 88% 29.76 in 3.0 mi SSW 12.7 mph - 0.08 in Rain Light Rain
2:53 AM 64.0 °F - 62.1 °F 93% 29.75 in 5.0 mi SSW 15.0 mph 25.3 mph 0.09 in Rain Light Rain
3:27 AM 64.4 °F - 60.8 °F 88% 29.76 in 7.0 mi SW 19.6 mph 25.3 mph 0.01 in   Overcast
3:53 AM 63.0 °F - 59.0 °F 87% 29.77 in 10.0 mi SW 20.7 mph 27.6 mph 0.01 in   Overcast
4:05 AM 62.6 °F - 57.2 °F 82% 29.77 in 10.0 mi SW 20.7 mph 27.6 mph N/A   Mostly Cloudy
4:53 AM 61.0 °F - 55.9 °F 83% 29.80 in 10.0 mi SW 19.6 mph 24.2 mph N/A   Partly Cloudy
5:25 AM 57.2 °F - 48.2 °F 72% 29.84 in 10.0 mi West 26.5 mph 38.0 mph N/A   Mostly Cloudy
5:33 AM 55.4 °F - 46.4 °F 72% 29.85 in 10.0 mi WSW 24.2 mph 34.5 mph N/A   Mostly Cloudy
5:53 AM 54.0 °F - 46.0 °F 75% 29.86 in 10.0 mi WSW 19.6 mph 29.9 mph N/A   Partly Cloudy
6:53 AM 53.1 °F - 46.0 °F 77% 29.89 in 10.0 mi WSW 16.1 mph 23.0 mph N/A   Mostly Cloudy
8:53 AM 53.1 °F - 43.0 °F 69% 29.96 in 10.0 mi West 15.0 mph 23.0 mph N/A   Overcast
9:53 AM 52.0 °F - 42.1 °F 69% 30.01 in 10.0 mi West 16.1 mph - N/A   Overcast
10:53 AM 52.0 °F - 39.9 °F 63% 30.04 in 10.0 mi West 17.3 mph 25.3 mph N/A   Overcast
11:53 AM 53.1 °F - 37.0 °F 55% 30.07 in 10.0 mi WNW 23.0 mph 31.1 mph N/A   Clear
12:53 PM 51.1 °F - 36.0 °F 56% 30.09 in 10.0 mi WNW 19.6 mph 27.6 mph N/A   Partly Cloudy
1:53 PM 52.0 °F - 36.0 °F 54% 30.11 in 10.0 mi NW 18.4 mph 27.6 mph N/A   Overcast
2:53 PM 51.1 °F - 35.1 °F 54% 30.13 in 10.0 mi NW 15.0 mph 24.2 mph N/A   Scattered Clouds
3:53 PM 51.1 °F - 35.1 °F 54% 30.14 in 10.0 mi NNW 18.4 mph 21.9 mph N/A   Overcast
4:53 PM 48.0 °F - 35.1 °F 61% 30.16 in 10.0 mi NNW 8.1 mph - N/A   Clear
5:53 PM 43.0 °F - 36.0 °F 76% 30.19 in 10.0 mi Calm Calm - N/A   Clear
6:53 PM 41.0 °F - 36.0 °F 82% 30.20 in 10.0 mi Calm Calm - N/A   Clear
7:53 PM 39.9 °F - 36.0 °F 86% 30.20 in 10.0 mi Calm Calm - N/A   Clear
8:53 PM 39.0 °F - 35.1 °F 86% 30.21 in 10.0 mi Calm Calm - N/A   Clear
9:53 PM 37.9 °F - 34.0 °F 86% 30.22 in 10.0 mi Calm Calm - N/A   Clear
10:53 PM 37.0 °F 33.3 °F 34.0 °F 89% 30.22 in 10.0 mi West 4.6 mph - N/A   Clear
11:53 PM 37.0 °F 31.0 °F 33.1 °F 86% 30.22 in 10.0 mi WSW 8.1 mph - N/A   Clear